Flag for Marshall Islands Weather past 2 weeks in Kwajalein, Marshall Islands

Now
81 °F

Passing clouds.


Feels Like: 86 °F
Forecast: 82 / 88 °F
Wind: 5 mph from South

Location: Kwajalein / Bucholz

Current Time: Jul 30, 2014 at 5:27:51 AM

Latest Report: Jul 30, 2014 at 5:00 AM


Visibility: 10 mi

Pressure: 29.86 "Hg

Humidity: 79%

Dew point: 74 °F

Location of KwajaleinLocation

Historic Weather in Kwajalein — Graph

°F

Kwajalein temperature yesterday

Maximum temperature yesterday: 86 °F (at 12:20 PM)
Minimum temperature yesterday: 78 °F (at 5:00 PM)
Average temperature yesterday: 82 °F

Past Weeks' High & Low Weather Summary

 TemperatureHumidityPressure
High89 °F (Jul 24, 1:20 PM)90% (Jul 21, 6:20 AM)29.91 "Hg (Jul 21, 6:20 AM)
Low77 °F (Jul 21, 6:20 AM)61% (Jul 24, 12:40 PM)29.72 "Hg (Jul 23, 4:00 PM)
Average83 °F76%29.82 "Hg
* Reported Jul 15 4:00 AM — Jul 30 4:20 AM, Kwajalein, Weather by CustomWeather, © 2014

Note: Actual official high and low records may vary slightly from our data, if they occured in-between our weather recording intervals... More about our weather records

Advertising

Kwajalein weather history for previous 24 hours

 ConditionsComfort  
Time TempWeatherWind HumidityBarometerVisibility
4:20 AM
Jul 30
81 °FPassing clouds.5 mph79%29.86 "Hg10 mi
4:00 AM81 °FPassing clouds.6 mph78%29.86 "Hg10 mi
3:40 AM81 °FClear.6 mph78%29.86 "Hg10 mi
3:20 AM81 °FClear.6 mph78%29.86 "Hg10 mi
3:00 AM81 °FClear.7 mph77%29.86 "Hg10 mi
2:40 AM82 °FClear.7 mph77%29.86 "Hg10 mi
2:20 AM82 °FClear.8 mph77%29.87 "Hg10 mi
2:00 AM81 °FClear.8 mph77%29.87 "Hg10 mi
1:40 AM82 °FClear.8 mph77%29.88 "Hg10 mi
1:20 AM81 °FClear.9 mph78%29.88 "Hg10 mi
1:00 AM81 °FClear.9 mph78%29.89 "Hg10 mi
12:40 AM81 °FPassing clouds.8 mph79%29.90 "Hg10 mi
12:20 AM81 °FPassing clouds.7 mph79%29.91 "Hg10 mi
12:00 AM81 °FPassing clouds.6 mph80%29.91 "Hg10 mi
11:40 PM
Jul 29
81 °FClear.7 mph80%29.91 "Hg10 mi
11:20 PM81 °FClear.6 mph79%29.91 "Hg10 mi
11:00 PM81 °FClear.7 mph79%29.90 "Hg10 mi
10:40 PM81 °FClear.6 mph81%29.90 "Hg10 mi
10:20 PM81 °FClear.6 mph81%29.89 "Hg10 mi
10:00 PM81 °FPassing clouds.7 mph82%29.89 "Hg10 mi
9:40 PM80 °FPartly cloudy.6 mph83%29.89 "Hg10 mi
9:20 PM80 °FPassing clouds.6 mph83%29.89 "Hg10 mi
9:00 PM80 °FPassing clouds.5 mph84%29.88 "Hg10 mi
8:40 PM80 °FPassing clouds.8 mph84%29.88 "Hg10 mi
8:20 PM80 °FPassing clouds.6 mph84%29.87 "Hg10 mi
8:00 PM80 °FPartly cloudy.7 mph85%29.87 "Hg10 mi
7:40 PM80 °FPassing clouds.7 mph85%29.87 "Hg10 mi
7:20 PM79 °FMostly cloudy.7 mph86%29.86 "Hg10 mi
7:00 PM79 °FPartly sunny.6 mph87%29.86 "Hg10 mi
6:40 PM79 °FLight rain. Scattered clouds.No wind88%29.84 "Hg10 mi
6:20 PM79 °FLight rain. Scattered clouds.5 mph88%29.83 "Hg10 mi
6:00 PM78 °FBroken clouds.7 mph89%29.83 "Hg10 mi
5:40 PM78 °FCloudy.6 mph89%29.83 "Hg7 mi
5:20 PM78 °FCloudy.6 mph90%29.83 "Hg10 mi
5:00 PM78 °FDrizzle. Cloudy.6 mph89%29.82 "Hg10 mi
4:20 PM79 °FHeavy rain. Cloudy.7 mph84%29.83 "Hg2 mi
4:00 PM80 °FLight rain. Mostly cloudy.13 mph81%29.83 "Hg2 mi
3:40 PM81 °FHeavy rain. Mostly cloudy.12 mph78%29.83 "Hg4 mi
3:20 PM82 °FLight rain. Mostly cloudy.No wind77%29.83 "Hg10 mi
3:00 PM81 °FLight rain. Cloudy.5 mph78%29.83 "Hg10 mi
2:40 PM81 °FScattered clouds.7 mph79%29.84 "Hg10 mi
2:20 PM81 °FScattered clouds.3 mph81%29.83 "Hg10 mi
2:00 PM80 °FCloudy.3 mph82%29.85 "Hg10 mi
1:40 PM82 °FLight rain. Cloudy.6 mph79%29.85 "Hg10 mi
1:20 PM83 °FRain. Broken clouds.9 mph77%29.85 "Hg10 mi
1:00 PM84 °FLight rain. Broken clouds.14 mph73%29.85 "Hg10 mi
12:40 PM85 °FCloudy.14 mph70%29.86 "Hg10 mi
12:20 PM86 °FBroken clouds.7 mph67%29.86 "Hg10 mi
12:00 PM86 °FScattered clouds.9 mph68%29.88 "Hg10 mi
11:40 AM86 °FScattered clouds.7 mph67%29.88 "Hg10 mi
11:20 AM85 °FSunny.6 mph69%29.88 "Hg10 mi
11:00 AM85 °FSunny.7 mph72%29.88 "Hg10 mi
10:40 AM85 °FScattered clouds.8 mph72%29.88 "Hg10 mi
10:20 AM85 °FScattered clouds.7 mph73%29.89 "Hg10 mi
10:00 AM84 °FBroken clouds.8 mph74%29.89 "Hg10 mi
9:20 AM84 °FSunny.9 mph75%29.89 "Hg10 mi
9:00 AM83 °FSunny.8 mph76%29.88 "Hg10 mi
8:40 AM83 °FSunny.6 mph77%29.88 "Hg10 mi
8:20 AM82 °FScattered clouds.8 mph77%29.88 "Hg10 mi
8:00 AM82 °FScattered clouds.6 mph77%29.87 "Hg10 mi
7:20 AM82 °FSunny.6 mph77%29.85 "Hg10 mi
7:00 AM82 °FSunny.5 mph76%29.84 "Hg10 mi
6:40 AM82 °FSunny.7 mph77%29.85 "Hg10 mi
6:20 AM82 °FClear.5 mph75%29.84 "Hg10 mi
6:00 AM82 °FClear.5 mph75%29.83 "Hg10 mi
5:40 AM82 °FClear.6 mph75%29.82 "Hg10 mi
5:20 AM82 °FClear.6 mph76%29.82 "Hg10 mi
5:00 AM82 °FLight rain. Passing clouds.6 mph76%29.82 "Hg10 mi
Weather by CustomWeather, © 2014

See weather overviewHow to use our weather pages